EDV5330 KROC-KJFK

Flight info

Callsign EDV5330
Flight time 0h 48m
Altitude 29000
Route BEEPS Q140 MEMMS PUCKY1
Aircraft CRJ9/M-SDFGIRWY/S

Departure

Time 2026-05-07 15:02
Airport Frederick Douglass Greater Rochester International Airport (KROC)

Arrival

Time 2026-05-07 15:50
Airport John F. Kennedy International Airport (KJFK)
Time Latitude Longitude Altitude Speed Heading
2026-05-07 14:25 43.12611 -77.66424 541 ft 0 kts 81°
2026-05-07 14:50 43.12610 -77.66432 541 ft 2 kts 80°
2026-05-07 14:50 43.12606 -77.66459 541 ft 3 kts 77°
2026-05-07 14:51 43.12602 -77.66486 541 ft 3 kts 83°
2026-05-07 14:51 43.12603 -77.66509 541 ft 3 kts 117°
2026-05-07 14:51 43.12605 -77.66514 541 ft 1 kts 179°
2026-05-07 14:51 43.12608 -77.66514 541 ft 1 kts 182°
2026-05-07 14:54 43.12603 -77.66514 541 ft 2 kts 181°
2026-05-07 14:54 43.12573 -77.66515 541 ft 6 kts 182°
2026-05-07 14:55 43.12533 -77.66531 541 ft 6 kts 231°
2026-05-07 14:55 43.12520 -77.66622 541 ft 14 kts 267°
2026-05-07 14:55 43.12516 -77.66754 541 ft 14 kts 267°
2026-05-07 14:55 43.12512 -77.66885 541 ft 14 kts 268°
2026-05-07 14:56 43.12509 -77.67013 542 ft 13 kts 268°
2026-05-07 14:56 43.12460 -77.67106 542 ft 14 kts 213°
2026-05-07 14:56 43.12357 -77.67193 546 ft 20 kts 211°
2026-05-07 14:56 43.12223 -77.67305 544 ft 25 kts 212°
2026-05-07 14:57 43.12071 -77.67434 542 ft 26 kts 212°
2026-05-07 14:57 43.11923 -77.67558 543 ft 25 kts 211°
2026-05-07 14:57 43.11778 -77.67681 543 ft 24 kts 213°
2026-05-07 14:57 43.11636 -77.67799 543 ft 24 kts 211°
2026-05-07 14:58 43.11497 -77.67915 542 ft 23 kts 212°
2026-05-07 14:58 43.11361 -77.68030 542 ft 23 kts 211°
2026-05-07 14:58 43.11228 -77.68142 543 ft 22 kts 212°
2026-05-07 14:58 43.11100 -77.68249 543 ft 21 kts 211°
2026-05-07 14:59 43.10974 -77.68355 543 ft 21 kts 212°
2026-05-07 14:59 43.10852 -77.68460 543 ft 21 kts 212°
2026-05-07 14:59 43.10745 -77.68549 543 ft 15 kts 211°
2026-05-07 14:59 43.10676 -77.68609 543 ft 12 kts 221°
2026-05-07 15:00 43.10658 -77.68655 544 ft 0 kts 271°
2026-05-07 15:00 43.10662 -77.68674 546 ft 7 kts 294°
2026-05-07 15:00 43.10698 -77.68745 566 ft 5 kts 329°
2026-05-07 15:01 43.10728 -77.68737 553 ft 9 kts 30°
2026-05-07 15:01 43.10847 -77.68638 554 ft 47 kts 31°
2026-05-07 15:01 43.11336 -77.68227 551 ft 116 kts 31°
2026-05-07 15:01 43.12184 -77.67516 577 ft 165 kts 31°
2026-05-07 15:02 43.13156 -77.66671 1145 ft 165 kts 32°
2026-05-07 15:02 43.14145 -77.65765 1758 ft 174 kts 32°
2026-05-07 15:02 43.15150 -77.64819 2337 ft 176 kts 33°
2026-05-07 15:02 43.16177 -77.63837 2852 ft 188 kts 33°
2026-05-07 15:03 43.17343 -77.62728 3187 ft 217 kts 33°
2026-05-07 15:03 43.18659 -77.61499 3630 ft 239 kts 32°
2026-05-07 15:03 43.20058 -77.60170 4243 ft 256 kts 33°
2026-05-07 15:03 43.21553 -77.58724 4840 ft 269 kts 32°
2026-05-07 15:04 43.23087 -77.57191 5601 ft 274 kts 32°
2026-05-07 15:04 43.24481 -77.55357 6373 ft 285 kts 56°
2026-05-07 15:04 43.25036 -77.52723 7087 ft 295 kts 90°
2026-05-07 15:04 43.24555 -77.50029 7787 ft 298 kts 122°
2026-05-07 15:05 43.23317 -77.47767 8528 ft 297 kts 137°
2026-05-07 15:05 43.21788 -77.45829 9281 ft 298 kts 145°
2026-05-07 15:05 43.20187 -77.44039 10009 ft 302 kts 146°
2026-05-07 15:05 43.18538 -77.42222 10662 ft 306 kts 147°
2026-05-07 15:06 43.16856 -77.40339 11096 ft 322 kts 146°
2026-05-07 15:06 43.15096 -77.38281 11355 ft 341 kts 144°
2026-05-07 15:06 43.13267 -77.36063 11694 ft 358 kts 143°
2026-05-07 15:06 43.11410 -77.33801 12233 ft 364 kts 144°
2026-05-07 15:07 43.09494 -77.31482 12866 ft 370 kts 144°
2026-05-07 15:07 43.07543 -77.29135 13516 ft 375 kts 144°
2026-05-07 15:07 43.05567 -77.26764 14138 ft 379 kts 144°
2026-05-07 15:07 43.03599 -77.24397 14743 ft 383 kts 145°
2026-05-07 15:08 43.01578 -77.21975 15366 ft 386 kts 145°
2026-05-07 15:08 42.99553 -77.19541 15982 ft 389 kts 146°
2026-05-07 15:08 42.97495 -77.17081 16577 ft 393 kts 146°
2026-05-07 15:08 42.95451 -77.14635 17155 ft 397 kts 146°
2026-05-07 15:09 42.93365 -77.12132 17728 ft 400 kts 146°
2026-05-07 15:09 42.91255 -77.09614 18294 ft 404 kts 147°
2026-05-07 15:09 42.89125 -77.07075 18751 ft 407 kts 147°
2026-05-07 15:09 42.86983 -77.04523 19255 ft 410 kts 147°
2026-05-07 15:10 42.84825 -77.01962 19716 ft 413 kts 148°
2026-05-07 15:10 42.82650 -76.99381 20187 ft 417 kts 147°
2026-05-07 15:10 42.80743 -76.96364 20582 ft 435 kts 132°
2026-05-07 15:10 42.79163 -76.92778 20998 ft 445 kts 126°
2026-05-07 15:11 42.77692 -76.89042 21404 ft 450 kts 126°
2026-05-07 15:11 42.76175 -76.85286 21766 ft 453 kts 128°
2026-05-07 15:11 42.74564 -76.81576 22145 ft 454 kts 130°
2026-05-07 15:11 42.72917 -76.77959 22523 ft 458 kts 131°
2026-05-07 15:12 42.71245 -76.74239 22885 ft 462 kts 130°
2026-05-07 15:12 42.69577 -76.70481 23254 ft 465 kts 130°
2026-05-07 15:12 42.67885 -76.66689 23613 ft 469 kts 131°
2026-05-07 15:12 42.66179 -76.62890 23941 ft 471 kts 131°
2026-05-07 15:13 42.64482 -76.59140 24262 ft 473 kts 131°
2026-05-07 15:13 42.62748 -76.55302 24559 ft 475 kts 131°
2026-05-07 15:13 42.61024 -76.51459 24856 ft 477 kts 132°
2026-05-07 15:13 42.59294 -76.47597 25183 ft 479 kts 132°
2026-05-07 15:14 42.57575 -76.43759 25483 ft 481 kts 132°
2026-05-07 15:14 42.55820 -76.39882 25778 ft 481 kts 134°
2026-05-07 15:14 42.53770 -76.36421 26027 ft 464 kts 146°
2026-05-07 15:14 42.51494 -76.33331 26313 ft 462 kts 149°
2026-05-07 15:15 42.49167 -76.30322 26603 ft 462 kts 150°
2026-05-07 15:15 42.46825 -76.27316 26888 ft 465 kts 150°
2026-05-07 15:15 42.44480 -76.24285 27180 ft 467 kts 150°
2026-05-07 15:15 42.42131 -76.21203 27458 ft 471 kts 148°
2026-05-07 15:16 42.39835 -76.17998 27733 ft 477 kts 147°
2026-05-07 15:16 42.37561 -76.14716 27932 ft 479 kts 147°
2026-05-07 15:16 42.35280 -76.11416 28093 ft 482 kts 147°
2026-05-07 15:16 42.32992 -76.08095 28362 ft 483 kts 147°
2026-05-07 15:17 42.30700 -76.04766 28690 ft 483 kts 148°
2026-05-07 15:17 42.28407 -76.01502 28848 ft 486 kts 148°
2026-05-07 15:17 42.23690 -75.94806 28946 ft 499 kts 148°
2026-05-07 15:18 42.18843 -75.87940 28983 ft 509 kts 148°
2026-05-07 15:18 42.14005 -75.81102 28961 ft 512 kts 148°
2026-05-07 15:19 42.08998 -75.74057 28933 ft 513 kts 149°
2026-05-07 15:19 42.04039 -75.67091 28953 ft 516 kts 149°
2026-05-07 15:20 41.99090 -75.60153 28953 ft 518 kts 149°
2026-05-07 15:20 41.94085 -75.53145 28959 ft 520 kts 149°
2026-05-07 15:21 41.89051 -75.46117 28927 ft 521 kts 149°
2026-05-07 15:21 41.84045 -75.39153 28920 ft 520 kts 149°
2026-05-07 15:22 41.78995 -75.32145 28940 ft 521 kts 149°
2026-05-07 15:22 41.73935 -75.25136 28945 ft 522 kts 149°
2026-05-07 15:23 41.68901 -75.18180 28946 ft 523 kts 149°
2026-05-07 15:23 41.63846 -75.11208 28887 ft 519 kts 149°
2026-05-07 15:24 41.58834 -75.04313 28890 ft 513 kts 150°
2026-05-07 15:24 41.53882 -74.97529 28934 ft 508 kts 150°
2026-05-07 15:25 41.51416 -74.94153 28736 ft 510 kts 150°
2026-05-07 15:25 41.48959 -74.90802 28321 ft 510 kts 150°
2026-05-07 15:25 41.46491 -74.87415 27893 ft 506 kts 150°
2026-05-07 15:25 41.44039 -74.84065 27506 ft 502 kts 150°
2026-05-07 15:26 41.41602 -74.80744 27122 ft 499 kts 149°
2026-05-07 15:26 41.39178 -74.77437 26727 ft 496 kts 149°
2026-05-07 15:26 41.36764 -74.74151 26283 ft 493 kts 150°
2026-05-07 15:26 41.34354 -74.70885 25911 ft 491 kts 149°
2026-05-07 15:27 41.31998 -74.67682 25558 ft 489 kts 149°
2026-05-07 15:27 41.29611 -74.64448 25186 ft 487 kts 149°
2026-05-07 15:27 41.27237 -74.61229 24822 ft 486 kts 149°
2026-05-07 15:27 41.24867 -74.58021 24471 ft 484 kts 148°
2026-05-07 15:28 41.22507 -74.54838 24126 ft 482 kts 148°
2026-05-07 15:28 41.20153 -74.51663 23773 ft 481 kts 148°
2026-05-07 15:28 41.17835 -74.48528 23404 ft 480 kts 148°
2026-05-07 15:28 41.15491 -74.45367 22991 ft 477 kts 147°
2026-05-07 15:29 41.13190 -74.42260 22527 ft 461 kts 148°
2026-05-07 15:29 41.11005 -74.39317 22145 ft 444 kts 148°
2026-05-07 15:29 41.08871 -74.36460 21760 ft 428 kts 148°
2026-05-07 15:29 41.06813 -74.33699 21384 ft 413 kts 148°
2026-05-07 15:30 41.04824 -74.31037 21030 ft 399 kts 148°
2026-05-07 15:30 41.02894 -74.28455 20731 ft 389 kts 148°
2026-05-07 15:30 41.01006 -74.25932 20449 ft 380 kts 148°
2026-05-07 15:30 40.99186 -74.23501 20174 ft 373 kts 148°
2026-05-07 15:31 40.97364 -74.21069 19904 ft 369 kts 148°
2026-05-07 15:31 40.95573 -74.18673 19641 ft 362 kts 148°
2026-05-07 15:31 40.93788 -74.16306 19388 ft 364 kts 148°
2026-05-07 15:31 40.91999 -74.13972 19140 ft 366 kts 148°
2026-05-07 15:32 40.90227 -74.11578 18956 ft 367 kts 141°
2026-05-07 15:32 40.88704 -74.08810 18566 ft 376 kts 132°
2026-05-07 15:32 40.87337 -74.05848 18161 ft 377 kts 129°
2026-05-07 15:32 40.86013 -74.02867 17662 ft 376 kts 130°
2026-05-07 15:33 40.84669 -73.99914 17201 ft 373 kts 132°
2026-05-07 15:33 40.83289 -73.97021 16764 ft 370 kts 134°
2026-05-07 15:33 40.81901 -73.94221 16349 ft 368 kts 134°
2026-05-07 15:33 40.80504 -73.91392 15975 ft 366 kts 134°
2026-05-07 15:34 40.79123 -73.88577 15603 ft 362 kts 133°
2026-05-07 15:34 40.77985 -73.85575 15251 ft 370 kts 119°
2026-05-07 15:34 40.77111 -73.82390 14912 ft 366 kts 118°
2026-05-07 15:34 40.76271 -73.79230 14582 ft 363 kts 117°
2026-05-07 15:35 40.75438 -73.76154 14245 ft 355 kts 123°
2026-05-07 15:35 40.74089 -73.73621 13895 ft 322 kts 152°
2026-05-07 15:35 40.72290 -73.72076 13575 ft 302 kts 164°
2026-05-07 15:35 40.70456 -73.70771 13209 ft 297 kts 166°
2026-05-07 15:36 40.68627 -73.69539 12850 ft 294 kts 166°
2026-05-07 15:36 40.66802 -73.68347 12490 ft 292 kts 167°
2026-05-07 15:36 40.64970 -73.67178 12153 ft 291 kts 167°
2026-05-07 15:36 40.63149 -73.66143 11851 ft 283 kts 173°
2026-05-07 15:37 40.61282 -73.65364 11535 ft 280 kts 176°
2026-05-07 15:37 40.59406 -73.64661 11164 ft 281 kts 176°
2026-05-07 15:37 40.57524 -73.63982 10783 ft 280 kts 177°
2026-05-07 15:37 40.55647 -73.63324 10396 ft 278 kts 177°
2026-05-07 15:38 40.53769 -73.62680 10015 ft 277 kts 177°
2026-05-07 15:38 40.51906 -73.62054 9609 ft 275 kts 177°
2026-05-07 15:38 40.50054 -73.61449 9185 ft 273 kts 177°
2026-05-07 15:38 40.48216 -73.60865 8773 ft 269 kts 177°
2026-05-07 15:39 40.46402 -73.60308 8369 ft 266 kts 177°
2026-05-07 15:39 40.44645 -73.59779 8161 ft 260 kts 177°
2026-05-07 15:39 40.42888 -73.59260 8068 ft 258 kts 177°
2026-05-07 15:39 40.41150 -73.58751 8022 ft 254 kts 177°
2026-05-07 15:40 40.39434 -73.58565 7767 ft 240 kts 202°
2026-05-07 15:40 40.38123 -73.59643 7479 ft 215 kts 239°
2026-05-07 15:40 40.37354 -73.61270 7217 ft 209 kts 244°
2026-05-07 15:40 40.36677 -73.62912 6967 ft 201 kts 246°
2026-05-07 15:41 40.36046 -73.64525 6673 ft 197 kts 247°
2026-05-07 15:41 40.35430 -73.66141 6366 ft 200 kts 248°
2026-05-07 15:41 40.34810 -73.67784 6017 ft 206 kts 250°
2026-05-07 15:41 40.34644 -73.69599 5575 ft 202 kts 284°
2026-05-07 15:42 40.35013 -73.71380 5188 ft 201 kts 287°
2026-05-07 15:42 40.35385 -73.73157 4786 ft 203 kts 288°
2026-05-07 15:42 40.35757 -73.74948 4372 ft 205 kts 288°
2026-05-07 15:42 40.36121 -73.76744 3959 ft 207 kts 288°
2026-05-07 15:43 40.36488 -73.78580 3547 ft 209 kts 288°
2026-05-07 15:43 40.36850 -73.80427 3137 ft 210 kts 288°
2026-05-07 15:43 40.37209 -73.82291 2726 ft 211 kts 288°
2026-05-07 15:43 40.37569 -73.84164 2336 ft 210 kts 288°
2026-05-07 15:44 40.37921 -73.85998 2139 ft 207 kts 288°
2026-05-07 15:44 40.38269 -73.87828 2062 ft 206 kts 289°
2026-05-07 15:44 40.38997 -73.89364 1984 ft 197 kts 328°
2026-05-07 15:44 40.40282 -73.89796 2006 ft 196 kts 355°
2026-05-07 15:45 40.41679 -73.89920 2034 ft 206 kts 356°
2026-05-07 15:45 40.43060 -73.89571 2007 ft 205 kts 31°
2026-05-07 15:45 40.44109 -73.88350 1988 ft 198 kts 32°
2026-05-07 15:45 40.45386 -73.87916 1990 ft 190 kts
2026-05-07 15:46 40.48045 -73.87716 2050 ft 189 kts
2026-05-07 15:46 40.49338 -73.87395 2026 ft 196 kts 22°
2026-05-07 15:46 40.50512 -73.86498 2032 ft 193 kts 28°
2026-05-07 15:47 40.51635 -73.85607 2012 ft 185 kts 29°
2026-05-07 15:47 40.52712 -73.84744 1996 ft 174 kts 29°
2026-05-07 15:47 40.53717 -73.83929 1996 ft 167 kts 29°
2026-05-07 15:47 40.54369 -73.83401 1985 ft 166 kts 28°
2026-05-07 15:48 40.55686 -73.82366 1627 ft 165 kts 28°
2026-05-07 15:48 40.56658 -73.81619 1423 ft 155 kts 28°
2026-05-07 15:48 40.57263 -73.81155 1295 ft 149 kts 27°
2026-05-07 15:48 40.58144 -73.80465 1068 ft 147 kts 27°
2026-05-07 15:49 40.59022 -73.79777 876 ft 146 kts 27°
2026-05-07 15:49 40.59904 -73.79091 705 ft 142 kts 27°
2026-05-07 15:49 40.60723 -73.78444 459 ft 138 kts 26°
2026-05-07 15:49 40.61548 -73.77819 268 ft 134 kts 29°
2026-05-07 15:50 40.62356 -73.77181 95 ft 135 kts 27°
2026-05-07 15:50 40.63089 -73.76610 18 ft 106 kts 30°
2026-05-07 15:50 40.63548 -73.76249 22 ft 51 kts 31°
2026-05-07 15:50 40.63769 -73.76092 19 ft 30 kts 17°
2026-05-07 15:51 40.63953 -73.76071 19 ft 23 kts 352°
2026-05-07 15:51 40.64051 -73.76171 20 ft 17 kts 302°
2026-05-07 15:51 40.64113 -73.76304 18 ft 17 kts 300°
2026-05-07 15:51 40.64180 -73.76454 19 ft 21 kts 301°
2026-05-07 15:52 40.64252 -73.76611 19 ft 20 kts 302°
2026-05-07 15:52 40.64327 -73.76774 18 ft 22 kts 301°
2026-05-07 15:52 40.64403 -73.76946 18 ft 21 kts 290°
2026-05-07 15:52 40.64422 -73.77084 19 ft 14 kts 258°
2026-05-07 15:53 40.64344 -73.77172 19 ft 18 kts 210°
2026-05-07 15:53 40.64220 -73.77270 20 ft 22 kts 211°
2026-05-07 15:53 40.64098 -73.77363 19 ft 14 kts 211°
2026-05-07 15:53 40.64066 -73.77430 18 ft 4 kts 290°
2026-05-07 15:54 40.64104 -73.77486 18 ft 13 kts 320°
2026-05-07 15:54 40.64189 -73.77558 20 ft 16 kts 330°
2026-05-07 15:54 40.64292 -73.77634 19 ft 17 kts 331°
2026-05-07 15:54 40.64380 -73.77709 19 ft 14 kts 313°
2026-05-07 15:55 40.64421 -73.77798 19 ft 3 kts 269°
2026-05-07 15:55 40.64401 -73.77817 20 ft 6 kts 203°
2026-05-07 15:55 40.64369 -73.77841 19 ft 4 kts 212°
2026-05-07 15:55 40.64361 -73.77847 19 ft 0 kts 213°